Time,TemperatureF,DewpointF,PressureIn,WindDirection,WindDirectionDegrees,WindSpeedMPH,WindSpeedGustMPH,Humidity,HourlyPrecipIn,Conditions,Clouds,dailyrainin,SoftwareType,DateUTC
2014-01-12 00:00:00,41.2,19.9,29.90,SSE,151,7.6,8.1,42,0.00,,,0.00,VWS V14.00,2014-01-12 06:00:00,
2014-01-12 00:01:00,41.2,20.4,29.90,SE,146,7.6,8.3,43,0.00,,,0.00,VWS V14.00,2014-01-12 06:01:00,
2014-01-12 00:02:00,41.2,20.4,29.90,SSE,162,7.2,7.6,43,0.00,,,0.00,VWS V14.00,2014-01-12 06:02:00,
2014-01-12 00:03:00,41.2,20.4,29.90,SE,143,5.8,8.3,43,0.00,,,0.00,VWS V14.00,2014-01-12 06:03:00,
2014-01-12 00:04:00,41.2,20.4,29.90,SSE,147,7.6,8.1,43,0.00,,,0.00,VWS V14.00,2014-01-12 06:04:00,
2014-01-12 00:05:00,41.0,20.2,29.90,SE,145,8.3,8.3,43,0.00,,,0.00,VWS V14.00,2014-01-12 06:05:00,
2014-01-12 00:06:00,41.0,20.2,29.90,South,172,5.8,8.3,43,0.00,,,0.00,VWS V14.00,2014-01-12 06:06:00,
2014-01-12 00:07:00,41.0,20.2,29.90,SSE,149,6.3,8.1,43,0.00,,,0.00,VWS V14.00,2014-01-12 06:07:00,
2014-01-12 00:08:00,41.0,20.2,29.90,SSE,161,6.3,8.1,43,0.00,,,0.00,VWS V14.00,2014-01-12 06:08:00,
2014-01-12 00:09:00,41.0,20.2,29.90,SSE,153,7.6,7.6,43,0.00,,,0.00,VWS V14.00,2014-01-12 06:09:00,
2014-01-12 00:10:00,41.0,20.2,29.90,SE,138,5.8,8.3,43,0.00,,,0.00,VWS V14.00,2014-01-12 06:10:00,
2014-01-12 00:11:00,41.0,20.2,29.90,SSE,157,6.3,8.7,43,0.00,,,0.00,VWS V14.00,2014-01-12 06:11:00,
2014-01-12 00:12:00,41.0,20.2,29.90,SSE,165,8.1,8.1,43,0.00,,,0.00,VWS V14.00,2014-01-12 06:12:00,
2014-01-12 00:13:00,41.0,20.2,29.90,South,179,7.2,8.1,43,0.00,,,0.00,VWS V14.00,2014-01-12 06:13:00,
2014-01-12 00:14:00,41.0,20.2,29.90,SSE,167,5.4,8.3,43,0.00,,,0.00,VWS V14.00,2014-01-12 06:14:00,
2014-01-12 00:15:00,41.0,20.2,29.90,SSE,163,8.7,8.7,43,0.00,,,0.00,VWS V14.00,2014-01-12 06:15:00,
2014-01-12 00:16:00,41.0,20.2,29.90,SE,145,8.3,8.7,43,0.00,,,0.00,VWS V14.00,2014-01-12 06:16:00,
2014-01-12 00:17:00,41.0,20.2,29.90,SSE,154,8.3,8.3,43,0.00,,,0.00,VWS V14.00,2014-01-12 06:17:00,
2014-01-12 00:18:00,41.0,20.2,29.90,SSE,148,5.4,8.3,43,0.00,,,0.00,VWS V14.00,2014-01-12 06:18:00,
2014-01-12 00:19:00,41.0,20.2,29.90,SE,142,7.6,8.7,43,0.00,,,0.00,VWS V14.00,2014-01-12 06:19:00,
2014-01-12 00:20:00,41.0,20.2,29.90,SSE,156,4.9,8.1,43,0.00,,,0.00,VWS V14.00,2014-01-12 06:20:00,
2014-01-12 00:21:00,41.0,20.2,29.90,SE,144,5.8,8.7,43,0.00,,,0.00,VWS V14.00,2014-01-12 06:21:00,
2014-01-12 00:22:00,41.0,20.2,29.90,SE,137,7.6,8.3,43,0.00,,,0.00,VWS V14.00,2014-01-12 06:22:00,
2014-01-12 00:23:00,41.0,20.2,29.90,SSE,148,8.7,8.7,43,0.00,,,0.00,VWS V14.00,2014-01-12 06:23:00,
2014-01-12 00:24:00,41.0,20.2,29.90,SSE,166,7.6,8.7,43,0.00,,,0.00,VWS V14.00,2014-01-12 06:24:00,
2014-01-12 00:25:00,41.0,20.2,29.90,SSE,154,6.3,8.7,43,0.00,,,0.00,VWS V14.00,2014-01-12 06:25:00,
2014-01-12 00:26:00,41.0,20.2,29.90,South,170,6.7,8.1,43,0.00,,,0.00,VWS V14.00,2014-01-12 06:26:00,
2014-01-12 00:27:00,41.0,20.2,29.90,SE,140,8.7,10.1,43,0.00,,,0.00,VWS V14.00,2014-01-12 06:27:00,
2014-01-12 00:28:00,41.0,20.2,29.90,SE,143,7.6,8.7,43,0.00,,,0.00,VWS V14.00,2014-01-12 06:28:00,
2014-01-12 00:29:00,41.0,20.2,29.90,South,174,5.8,7.6,43,0.00,,,0.00,VWS V14.00,2014-01-12 06:29:00,
2014-01-12 00:30:00,41.0,20.2,29.90,SE,142,5.8,8.7,43,0.00,,,0.00,VWS V14.00,2014-01-12 06:30:00,
2014-01-12 00:31:00,41.0,20.2,29.90,SSE,166,8.1,8.3,43,0.00,,,0.00,VWS V14.00,2014-01-12 06:31:00,
2014-01-12 00:32:00,41.0,20.2,29.90,SSE,157,8.7,8.7,43,0.00,,,0.00,VWS V14.00,2014-01-12 06:32:00,
2014-01-12 00:33:00,41.0,20.2,29.90,South,181,5.4,8.7,43,0.00,,,0.00,VWS V14.00,2014-01-12 06:33:00,
2014-01-12 00:34:00,41.0,20.2,29.90,SSE,148,7.6,8.1,43,0.00,,,0.00,VWS V14.00,2014-01-12 06:34:00,
2014-01-12 00:35:00,41.0,20.2,29.90,SE,138,6.3,7.6,43,0.00,,,0.00,VWS V14.00,2014-01-12 06:35:00,
2014-01-12 00:36:00,41.0,20.2,29.90,SSE,149,5.8,8.3,43,0.00,,,0.00,VWS V14.00,2014-01-12 06:36:00,
2014-01-12 00:37:00,41.0,20.2,29.90,SSE,148,7.6,8.1,43,0.00,,,0.00,VWS V14.00,2014-01-12 06:37:00,
2014-01-12 00:38:00,41.0,20.2,29.90,South,187,5.8,10.5,43,0.00,,,0.00,VWS V14.00,2014-01-12 06:38:00,
2014-01-12 00:39:00,41.0,20.2,29.90,South,169,8.1,8.3,43,0.00,,,0.00,VWS V14.00,2014-01-12 06:39:00,
2014-01-12 00:40:00,41.2,20.4,29.90,South,174,8.1,8.7,43,0.00,,,0.00,VWS V14.00,2014-01-12 06:40:00,
2014-01-12 00:41:00,41.2,20.4,29.90,South,169,8.1,8.7,43,0.00,,,0.00,VWS V14.00,2014-01-12 06:41:00,
2014-01-12 00:42:00,41.2,20.4,29.90,South,173,6.7,8.1,43,0.00,,,0.00,VWS V14.00,2014-01-12 06:42:00,
2014-01-12 00:43:00,41.2,20.4,29.90,SSE,165,8.1,8.1,43,0.00,,,0.00,VWS V14.00,2014-01-12 06:43:00,
2014-01-12 00:44:00,41.4,20.6,29.90,South,172,5.8,8.1,43,0.00,,,0.00,VWS V14.00,2014-01-12 06:44:00,
2014-01-12 00:45:00,41.4,20.6,29.90,South,178,7.6,7.6,43,0.00,,,0.00,VWS V14.00,2014-01-12 06:45:00,
2014-01-12 00:46:00,41.4,20.6,29.90,SSE,163,8.3,8.7,43,0.00,,,0.00,VWS V14.00,2014-01-12 06:46:00,
2014-01-12 00:47:00,41.5,20.2,29.90,South,189,8.1,8.7,42,0.00,,,0.00,VWS V14.00,2014-01-12 06:47:00,
2014-01-12 00:48:00,41.5,20.2,29.90,South,185,8.1,8.7,42,0.00,,,0.00,VWS V14.00,2014-01-12 06:48:00,
2014-01-12 00:49:00,41.5,20.2,29.90,SSE,162,10.5,10.5,42,0.00,,,0.00,VWS V14.00,2014-01-12 06:49:00,
2014-01-12 00:50:00,41.5,20.2,29.90,South,186,6.3,10.5,42,0.00,,,0.00,VWS V14.00,2014-01-12 06:50:00,
2014-01-12 00:51:00,41.5,20.2,29.90,SSE,151,8.3,8.7,42,0.00,,,0.00,VWS V14.00,2014-01-12 06:51:00,
2014-01-12 00:52:00,41.5,20.2,29.90,South,171,5.4,8.7,42,0.00,,,0.00,VWS V14.00,2014-01-12 06:52:00,
2014-01-12 00:53:00,41.5,20.2,29.90,SSE,160,7.6,8.7,42,0.00,,,0.00,VWS V14.00,2014-01-12 06:53:00,
2014-01-12 00:54:00,41.5,20.2,29.90,South,177,8.1,9.6,42,0.00,,,0.00,VWS V14.00,2014-01-12 06:54:00,
2014-01-12 00:55:00,41.5,20.2,29.90,SSE,164,8.3,9.2,42,0.00,,,0.00,VWS V14.00,2014-01-12 06:55:00,
2014-01-12 00:56:00,41.7,20.3,29.90,SSE,164,8.1,10.5,42,0.00,,,0.00,VWS V14.00,2014-01-12 06:56:00,
2014-01-12 00:57:00,41.7,20.3,29.90,SSE,154,8.3,8.3,42,0.00,,,0.00,VWS V14.00,2014-01-12 06:57:00,
2014-01-12 00:58:00,41.7,20.3,29.90,SSE,154,8.1,8.3,42,0.00,,,0.00,VWS V14.00,2014-01-12 06:58:00,
2014-01-12 00:59:00,41.7,20.3,29.90,SE,144,7.6,10.1,42,0.00,,,0.00,VWS V14.00,2014-01-12 06:59:00,
2014-01-12 01:00:00,41.7,20.3,29.90,SSE,156,10.1,10.1,42,0.00,,,0.00,VWS V14.00,2014-01-12 07:00:00,
2014-01-12 01:01:00,41.7,20.3,29.90,SSE,159,8.3,11.0,42,0.00,,,0.00,VWS V14.00,2014-01-12 07:01:00,
2014-01-12 01:02:00,41.5,20.2,29.90,South,171,7.6,8.7,42,0.00,,,0.00,VWS V14.00,2014-01-12 07:02:00,
2014-01-12 01:03:00,41.5,20.2,29.90,SSE,164,5.8,8.7,42,0.00,,,0.00,VWS V14.00,2014-01-12 07:03:00,
2014-01-12 01:04:00,41.5,20.2,29.90,SSE,160,8.3,10.1,42,0.00,,,0.00,VWS V14.00,2014-01-12 07:04:00,
2014-01-12 01:05:00,41.5,20.2,29.90,SSE,152,8.3,8.3,42,0.00,,,0.00,VWS V14.00,2014-01-12 07:05:00,
2014-01-12 01:06:00,41.5,20.2,29.90,SE,140,8.7,10.5,42,0.00,,,0.00,VWS V14.00,2014-01-12 07:06:00,
2014-01-12 01:07:00,41.5,20.2,29.90,SSE,152,7.6,8.7,42,0.00,,,0.00,VWS V14.00,2014-01-12 07:07:00,
2014-01-12 01:08:00,41.5,20.2,29.87,SSE,157,6.3,9.2,42,0.00,,,0.00,VWS V14.00,2014-01-12 07:08:00,
2014-01-12 01:09:00,41.5,20.2,29.87,SSE,156,5.8,8.7,42,0.00,,,0.00,VWS V14.00,2014-01-12 07:09:00,
2014-01-12 01:10:00,41.4,20.0,29.87,South,182,7.6,10.5,42,0.00,,,0.00,VWS V14.00,2014-01-12 07:10:00,
2014-01-12 01:11:00,41.4,20.0,29.87,SSE,152,9.2,9.2,42,0.00,,,0.00,VWS V14.00,2014-01-12 07:11:00,
2014-01-12 01:12:00,41.4,20.0,29.87,SSE,155,8.1,9.2,42,0.00,,,0.00,VWS V14.00,2014-01-12 07:12:00,
2014-01-12 01:13:00,41.4,20.0,29.87,SSE,161,7.6,8.3,42,0.00,,,0.00,VWS V14.00,2014-01-12 07:13:00,
2014-01-12 01:14:00,41.4,20.0,29.87,SSE,153,7.6,8.3,42,0.00,,,0.00,VWS V14.00,2014-01-12 07:14:00,
2014-01-12 01:15:00,41.2,19.9,29.87,SE,139,12.3,12.3,42,0.00,,,0.00,VWS V14.00,2014-01-12 07:15:00,
2014-01-12 01:16:00,41.2,19.9,29.87,SSE,167,8.3,12.3,42,0.00,,,0.00,VWS V14.00,2014-01-12 07:16:00,
2014-01-12 01:17:00,41.2,19.9,29.87,SSE,165,6.3,8.3,42,0.00,,,0.00,VWS V14.00,2014-01-12 07:17:00,
2014-01-12 01:18:00,41.2,19.9,29.87,SSE,165,8.3,10.5,42,0.00,,,0.00,VWS V14.00,2014-01-12 07:18:00,
2014-01-12 01:19:00,41.2,19.9,29.87,SSE,155,8.3,8.7,42,0.00,,,0.00,VWS V14.00,2014-01-12 07:19:00,
2014-01-12 01:20:00,41.2,19.9,29.87,South,178,7.6,8.3,42,0.00,,,0.00,VWS V14.00,2014-01-12 07:20:00,
2014-01-12 01:21:00,41.2,19.9,29.87,SE,145,8.3,9.2,42,0.00,,,0.00,VWS V14.00,2014-01-12 07:21:00,
2014-01-12 01:22:00,41.2,19.9,29.87,SSE,156,7.6,10.5,42,0.00,,,0.00,VWS V14.00,2014-01-12 07:22:00,
2014-01-12 01:23:00,41.2,19.9,29.87,South,171,5.8,8.1,42,0.00,,,0.00,VWS V14.00,2014-01-12 07:23:00,
2014-01-12 01:24:00,41.0,19.7,29.87,South,180,7.2,7.2,42,0.00,,,0.00,VWS V14.00,2014-01-12 07:24:00,
2014-01-12 01:25:00,41.0,19.7,29.87,SSE,155,6.3,8.3,42,0.00,,,0.00,VWS V14.00,2014-01-12 07:25:00,
2014-01-12 01:26:00,40.8,20.1,29.87,South,174,6.3,7.6,43,0.00,,,0.00,VWS V14.00,2014-01-12 07:26:00,
2014-01-12 01:27:00,40.8,20.1,29.87,SSE,155,6.3,8.7,43,0.00,,,0.00,VWS V14.00,2014-01-12 07:27:00,
2014-01-12 01:28:00,40.8,20.1,29.87,SSE,163,8.3,8.7,43,0.00,,,0.00,VWS V14.00,2014-01-12 07:28:00,
2014-01-12 01:29:00,40.8,20.1,29.87,South,188,8.7,8.7,43,0.00,,,0.00,VWS V14.00,2014-01-12 07:29:00,
2014-01-12 01:30:00,40.6,19.9,29.87,SSE,165,6.3,8.7,43,0.00,,,0.00,VWS V14.00,2014-01-12 07:30:00,
2014-01-12 01:31:00,40.6,19.9,29.87,SSE,149,4.9,6.3,43,0.00,,,0.00,VWS V14.00,2014-01-12 07:31:00,
2014-01-12 01:32:00,40.6,19.9,29.87,South,183,8.1,8.3,43,0.00,,,0.00,VWS V14.00,2014-01-12 07:32:00,
2014-01-12 01:33:00,40.6,19.9,29.87,SSE,165,8.7,8.7,43,0.00,,,0.00,VWS V14.00,2014-01-12 07:33:00,
2014-01-12 01:34:00,40.5,19.7,29.87,SSE,152,8.3,8.7,43,0.00,,,0.00,VWS V14.00,2014-01-12 07:34:00,
2014-01-12 01:35:00,40.5,19.7,29.87,South,177,8.3,8.3,43,0.00,,,0.00,VWS V14.00,2014-01-12 07:35:00,
2014-01-12 01:36:00,40.5,19.7,29.87,SSE,147,8.3,8.3,43,0.00,,,0.00,VWS V14.00,2014-01-12 07:36:00,
2014-01-12 01:37:00,40.5,19.7,29.87,SSE,149,8.1,10.1,43,0.00,,,0.00,VWS V14.00,2014-01-12 07:37:00,
2014-01-12 01:38:00,40.5,19.7,29.87,SSE,153,5.4,8.7,43,0.00,,,0.00,VWS V14.00,2014-01-12 07:38:00,
2014-01-12 01:39:00,40.5,19.7,29.87,South,181,8.1,8.7,43,0.00,,,0.00,VWS V14.00,2014-01-12 07:39:00,
2014-01-12 01:40:00,40.5,19.7,29.87,SSE,148,6.7,8.1,43,0.00,,,0.00,VWS V14.00,2014-01-12 07:40:00,
2014-01-12 01:41:00,40.3,19.6,29.87,SSE,164,8.3,8.3,43,0.00,,,0.00,VWS V14.00,2014-01-12 07:41:00,
2014-01-12 01:42:00,40.3,19.6,29.87,SE,140,6.3,9.6,43,0.00,,,0.00,VWS V14.00,2014-01-12 07:42:00,
2014-01-12 01:43:00,40.3,19.6,29.87,SSE,151,6.3,8.3,43,0.00,,,0.00,VWS V14.00,2014-01-12 07:43:00,
2014-01-12 01:44:00,40.3,19.6,29.87,SSE,167,8.7,8.7,43,0.00,,,0.00,VWS V14.00,2014-01-12 07:44:00,
2014-01-12 01:45:00,40.3,19.6,29.87,SSE,152,5.8,8.7,43,0.00,,,0.00,VWS V14.00,2014-01-12 07:45:00,
2014-01-12 01:46:00,40.3,19.6,29.87,SSE,166,8.1,8.1,43,0.00,,,0.00,VWS V14.00,2014-01-12 07:46:00,
2014-01-12 01:47:00,40.3,19.6,29.87,South,182,6.3,8.7,43,0.00,,,0.00,VWS V14.00,2014-01-12 07:47:00,
2014-01-12 01:48:00,40.3,19.6,29.87,South,187,8.3,8.3,43,0.00,,,0.00,VWS V14.00,2014-01-12 07:48:00,
2014-01-12 01:49:00,40.3,19.6,29.87,SSE,166,5.4,8.3,43,0.00,,,0.00,VWS V14.00,2014-01-12 07:49:00,
2014-01-12 01:50:00,40.3,19.6,29.87,SSE,154,7.6,10.5,43,0.00,,,0.00,VWS V14.00,2014-01-12 07:50:00,
2014-01-12 01:51:00,40.3,19.6,29.87,South,183,6.3,7.6,43,0.00,,,0.00,VWS V14.00,2014-01-12 07:51:00,
2014-01-12 01:52:00,40.1,19.4,29.87,South,169,7.2,8.7,43,0.00,,,0.00,VWS V14.00,2014-01-12 07:52:00,
2014-01-12 01:53:00,40.1,19.4,29.87,SSE,155,6.3,8.7,43,0.00,,,0.00,VWS V14.00,2014-01-12 07:53:00,
2014-01-12 01:54:00,40.1,19.4,29.87,SSE,162,8.1,8.3,43,0.00,,,0.00,VWS V14.00,2014-01-12 07:54:00,
2014-01-12 01:55:00,40.1,19.4,29.87,SSE,148,6.3,8.1,43,0.00,,,0.00,VWS V14.00,2014-01-12 07:55:00,
2014-01-12 01:56:00,40.1,19.4,29.87,SSE,153,7.6,8.3,43,0.00,,,0.00,VWS V14.00,2014-01-12 07:56:00,
2014-01-12 01:57:00,40.1,19.4,29.87,SSE,166,6.3,7.6,43,0.00,,,0.00,VWS V14.00,2014-01-12 07:57:00,
2014-01-12 01:58:00,40.1,20.0,29.87,South,173,6.3,8.3,44,0.00,,,0.00,VWS V14.00,2014-01-12 07:58:00,
2014-01-12 01:59:00,39.9,19.8,29.87,SSE,161,8.3,8.3,44,0.00,,,0.00,VWS V14.00,2014-01-12 07:59:00,
2014-01-12 02:00:00,39.9,19.8,29.87,SSE,152,6.3,8.7,44,0.00,,,0.00,VWS V14.00,2014-01-12 08:00:00,
2014-01-12 02:01:00,39.9,19.8,29.87,SSE,167,5.4,8.1,44,0.00,,,0.00,VWS V14.00,2014-01-12 08:01:00,
2014-01-12 02:02:00,39.9,19.8,29.87,SSE,156,5.8,6.3,44,0.00,,,0.00,VWS V14.00,2014-01-12 08:02:00,
2014-01-12 02:03:00,39.7,19.6,29.87,SSE,157,8.7,8.7,44,0.00,,,0.00,VWS V14.00,2014-01-12 08:03:00,
2014-01-12 02:04:00,39.7,19.6,29.87,SE,144,8.1,8.7,44,0.00,,,0.00,VWS V14.00,2014-01-12 08:04:00,
2014-01-12 02:05:00,39.7,19.6,29.87,South,184,5.8,8.1,44,0.00,,,0.00,VWS V14.00,2014-01-12 08:05:00,
2014-01-12 02:06:00,39.7,19.6,29.87,SE,138,7.6,7.6,44,0.00,,,0.00,VWS V14.00,2014-01-12 08:06:00,
2014-01-12 02:07:00,39.7,19.6,29.87,SE,141,5.4,8.1,44,0.00,,,0.00,VWS V14.00,2014-01-12 08:07:00,
2014-01-12 02:08:00,39.6,19.5,29.84,SSW,208,6.3,8.1,44,0.00,,,0.00,VWS V14.00,2014-01-12 08:08:00,
2014-01-12 02:09:00,39.6,19.5,29.84,SSE,161,4.9,6.3,44,0.00,,,0.00,VWS V14.00,2014-01-12 08:09:00,
2014-01-12 02:10:00,39.6,19.5,29.84,SSE,161,6.3,7.6,44,0.00,,,0.00,VWS V14.00,2014-01-12 08:10:00,
2014-01-12 02:11:00,39.6,19.5,29.84,SSE,151,5.8,8.3,44,0.00,,,0.00,VWS V14.00,2014-01-12 08:11:00,
2014-01-12 02:12:00,39.4,19.3,29.84,South,173,5.8,6.3,44,0.00,,,0.00,VWS V14.00,2014-01-12 08:12:00,
2014-01-12 02:13:00,39.4,19.3,29.84,South,169,8.7,8.7,44,0.00,,,0.00,VWS V14.00,2014-01-12 08:13:00,
2014-01-12 02:14:00,39.4,19.3,29.84,SE,143,5.8,8.7,44,0.00,,,0.00,VWS V14.00,2014-01-12 08:14:00,
2014-01-12 02:15:00,39.4,19.3,29.84,SSE,166,6.3,8.1,44,0.00,,,0.00,VWS V14.00,2014-01-12 08:15:00,
2014-01-12 02:16:00,39.4,19.3,29.84,SSE,168,5.4,6.3,44,0.00,,,0.00,VWS V14.00,2014-01-12 08:16:00,
2014-01-12 02:17:00,39.4,19.3,29.84,South,184,6.3,8.1,44,0.00,,,0.00,VWS V14.00,2014-01-12 08:17:00,
2014-01-12 02:18:00,39.2,19.1,29.84,South,180,5.8,6.3,44,0.00,,,0.00,VWS V14.00,2014-01-12 08:18:00,
2014-01-12 02:19:00,39.2,19.1,29.84,SE,131,7.6,7.6,44,0.00,,,0.00,VWS V14.00,2014-01-12 08:19:00,
2014-01-12 02:20:00,39.4,19.3,29.84,South,183,7.6,7.6,44,0.00,,,0.00,VWS V14.00,2014-01-12 08:20:00,
2014-01-12 02:21:00,39.4,19.3,29.84,South,183,7.2,7.6,44,0.00,,,0.00,VWS V14.00,2014-01-12 08:21:00,
2014-01-12 02:22:00,39.4,19.3,29.84,South,185,7.6,10.1,44,0.00,,,0.00,VWS V14.00,2014-01-12 08:22:00,
2014-01-12 02:23:00,39.4,19.3,29.84,South,173,6.3,8.1,44,0.00,,,0.00,VWS V14.00,2014-01-12 08:23:00,
2014-01-12 02:24:00,39.4,19.8,29.84,SSE,161,6.3,6.3,45,0.00,,,0.00,VWS V14.00,2014-01-12 08:24:00,
2014-01-12 02:25:00,39.4,19.8,29.84,SSE,160,5.8,8.3,45,0.00,,,0.00,VWS V14.00,2014-01-12 08:25:00,
2014-01-12 02:26:00,39.4,19.8,29.84,SSE,151,7.6,9.6,45,0.00,,,0.00,VWS V14.00,2014-01-12 08:26:00,
2014-01-12 02:27:00,39.4,19.8,29.84,SSE,165,6.3,10.1,45,0.00,,,0.00,VWS V14.00,2014-01-12 08:27:00,
2014-01-12 02:28:00,39.4,19.8,29.84,South,180,5.8,8.3,45,0.00,,,0.00,VWS V14.00,2014-01-12 08:28:00,
2014-01-12 02:29:00,39.6,20.0,29.84,South,186,6.3,8.3,45,0.00,,,0.00,VWS V14.00,2014-01-12 08:29:00,
2014-01-12 02:30:00,39.4,19.8,29.84,South,169,5.8,8.1,45,0.00,,,0.00,VWS V14.00,2014-01-12 08:30:00,
2014-01-12 02:31:00,39.4,19.8,29.84,SSE,162,7.6,8.3,45,0.00,,,0.00,VWS V14.00,2014-01-12 08:31:00,
2014-01-12 02:32:00,39.4,19.8,29.84,South,176,8.1,10.1,45,0.00,,,0.00,VWS V14.00,2014-01-12 08:32:00,
2014-01-12 02:33:00,39.6,20.0,29.84,SSE,157,7.6,8.7,45,0.00,,,0.00,VWS V14.00,2014-01-12 08:33:00,
2014-01-12 02:34:00,39.6,20.0,29.84,South,183,5.8,8.3,45,0.00,,,0.00,VWS V14.00,2014-01-12 08:34:00,
2014-01-12 02:35:00,39.6,20.0,29.84,SE,140,8.1,8.1,45,0.00,,,0.00,VWS V14.00,2014-01-12 08:35:00,
2014-01-12 02:36:00,39.6,20.0,29.84,South,184,8.1,8.1,45,0.00,,,0.00,VWS V14.00,2014-01-12 08:36:00,
2014-01-12 02:37:00,39.6,20.0,29.84,South,180,6.3,8.1,45,0.00,,,0.00,VWS V14.00,2014-01-12 08:37:00,
2014-01-12 02:38:00,39.6,20.0,29.84,SSE,151,5.8,8.7,45,0.00,,,0.00,VWS V14.00,2014-01-12 08:38:00,
2014-01-12 02:39:00,39.6,20.0,29.84,South,178,6.3,7.6,45,0.00,,,0.00,VWS V14.00,2014-01-12 08:39:00,
2014-01-12 02:40:00,39.6,20.0,29.84,South,174,7.6,7.6,45,0.00,,,0.00,VWS V14.00,2014-01-12 08:40:00,
2014-01-12 02:41:00,39.6,20.0,29.84,SSE,148,7.6,8.1,45,0.00,,,0.00,VWS V14.00,2014-01-12 08:41:00,
2014-01-12 02:42:00,39.6,20.0,29.84,SSE,158,8.3,8.3,45,0.00,,,0.00,VWS V14.00,2014-01-12 08:42:00,
2014-01-12 02:43:00,39.6,20.0,29.84,South,186,8.7,10.5,45,0.00,,,0.00,VWS V14.00,2014-01-12 08:43:00,
2014-01-12 02:44:00,39.7,20.1,29.84,South,170,7.6,8.7,45,0.00,,,0.00,VWS V14.00,2014-01-12 08:44:00,
2014-01-12 02:45:00,39.7,20.1,29.84,South,178,6.3,7.6,45,0.00,,,0.00,VWS V14.00,2014-01-12 08:45:00,
2014-01-12 02:46:00,39.7,20.1,29.84,SE,138,8.1,8.1,45,0.00,,,0.00,VWS V14.00,2014-01-12 08:46:00,
2014-01-12 02:47:00,39.6,20.0,29.84,South,171,8.3,10.5,45,0.00,,,0.00,VWS V14.00,2014-01-12 08:47:00,
2014-01-12 02:48:00,39.6,20.0,29.84,South,188,5.4,8.3,45,0.00,,,0.00,VWS V14.00,2014-01-12 08:48:00,
2014-01-12 02:49:00,39.6,20.0,29.84,SSE,168,6.3,7.6,45,0.00,,,0.00,VWS V14.00,2014-01-12 08:49:00,
2014-01-12 02:50:00,39.4,19.8,29.84,South,179,7.2,11.0,45,0.00,,,0.00,VWS V14.00,2014-01-12 08:50:00,
2014-01-12 02:51:00,39.4,19.8,29.84,SSE,153,7.6,11.0,45,0.00,,,0.00,VWS V14.00,2014-01-12 08:51:00,
2014-01-12 02:52:00,39.4,19.8,29.84,South,173,8.7,8.7,45,0.00,,,0.00,VWS V14.00,2014-01-12 08:52:00,
2014-01-12 02:53:00,39.4,19.8,29.84,SSE,155,8.1,8.7,45,0.00,,,0.00,VWS V14.00,2014-01-12 08:53:00,
2014-01-12 02:54:00,39.4,19.8,29.84,SSE,162,6.3,8.7,45,0.00,,,0.00,VWS V14.00,2014-01-12 08:54:00,
2014-01-12 02:55:00,39.4,19.8,29.84,South,177,7.6,8.7,45,0.00,,,0.00,VWS V14.00,2014-01-12 08:55:00,
2014-01-12 02:56:00,39.4,19.8,29.84,South,174,5.8,7.6,45,0.00,,,0.00,VWS V14.00,2014-01-12 08:56:00,
2014-01-12 02:58:00,39.4,19.8,29.84,South,180,8.1,9.6,45,0.00,,,0.00,VWS V14.00,2014-01-12 08:58:00,
2014-01-12 03:06:00,39.7,20.1,29.84,SSE,155,5.8,5.8,45,0.00,,,0.00,VWS V14.00,2014-01-12 09:06:00,
2014-01-12 03:11:00,39.7,20.1,29.84,South,184,5.4,9.6,45,0.00,,,0.00,VWS V14.00,2014-01-12 09:11:00,
2014-01-12 03:16:00,39.9,20.3,29.84,SSE,152,7.6,7.6,45,0.00,,,0.00,VWS V14.00,2014-01-12 09:16:00,
2014-01-12 03:22:00,40.1,20.5,29.84,SSW,194,8.3,8.3,45,0.00,,,0.00,VWS V14.00,2014-01-12 09:22:00,
2014-01-12 03:27:00,40.1,20.5,29.84,South,189,6.3,10.5,45,0.00,,,0.00,VWS V14.00,2014-01-12 09:27:00,
2014-01-12 03:32:00,40.3,20.1,29.84,South,173,6.3,10.1,44,0.00,,,0.00,VWS V14.00,2014-01-12 09:32:00,
2014-01-12 03:37:00,40.3,20.1,29.84,South,177,4.9,6.7,44,0.00,,,0.00,VWS V14.00,2014-01-12 09:37:00,
2014-01-12 03:43:00,40.5,20.3,29.84,SSE,167,8.1,10.1,44,0.00,,,0.00,VWS V14.00,2014-01-12 09:43:00,
2014-01-12 03:48:00,40.8,20.6,29.84,SSE,163,8.7,10.5,44,0.00,,,0.00,VWS V14.00,2014-01-12 09:48:00,
2014-01-12 03:54:00,41.2,20.4,29.84,South,169,8.3,10.5,43,0.00,,,0.00,VWS V14.00,2014-01-12 09:54:00,
2014-01-12 03:59:00,41.5,20.7,29.84,SSE,152,7.2,10.5,43,0.00,,,0.00,VWS V14.00,2014-01-12 09:59:00,
2014-01-12 04:05:00,41.7,20.9,29.84,South,170,8.1,11.0,43,0.00,,,0.00,VWS V14.00,2014-01-12 10:05:00,
2014-01-12 04:11:00,41.9,20.5,29.81,South,189,11.0,11.4,42,0.00,,,0.00,VWS V14.00,2014-01-12 10:11:00,
2014-01-12 04:16:00,42.1,20.7,29.81,SSW,198,10.5,12.8,42,0.00,,,0.00,VWS V14.00,2014-01-12 10:16:00,
2014-01-12 04:22:00,41.9,20.5,29.81,South,179,8.1,13.2,42,0.00,,,0.00,VWS V14.00,2014-01-12 10:22:00,
2014-01-12 04:27:00,41.9,20.5,29.81,South,179,10.5,10.5,42,0.00,,,0.00,VWS V14.00,2014-01-12 10:27:00,
2014-01-12 04:33:00,41.7,20.3,29.81,South,182,6.7,11.0,42,0.00,,,0.00,VWS V14.00,2014-01-12 10:33:00,
2014-01-12 04:38:00,41.9,20.5,29.78,South,171,9.2,9.2,42,0.00,,,0.00,VWS V14.00,2014-01-12 10:38:00,
2014-01-12 04:44:00,41.7,20.3,29.78,SSE,168,12.3,13.6,42,0.00,,,0.00,VWS V14.00,2014-01-12 10:44:00,
2014-01-12 04:49:00,41.7,20.3,29.78,South,187,8.3,8.7,42,0.00,,,0.00,VWS V14.00,2014-01-12 10:49:00,
2014-01-12 04:54:00,41.7,20.3,29.78,South,181,6.3,8.3,42,0.00,,,0.00,VWS V14.00,2014-01-12 10:54:00,
2014-01-12 04:59:00,42.1,20.7,29.78,South,174,8.3,10.1,42,0.00,,,0.00,VWS V14.00,2014-01-12 10:59:00,
2014-01-12 05:04:00,42.3,20.8,29.78,SSW,192,11.0,11.0,42,0.00,,,0.00,VWS V14.00,2014-01-12 11:04:00,
2014-01-12 05:09:00,42.4,21.0,29.78,South,186,13.6,13.6,42,0.00,,,0.00,VWS V14.00,2014-01-12 11:09:00,
2014-01-12 05:15:00,42.8,21.3,29.78,South,178,11.0,11.0,42,0.00,,,0.00,VWS V14.00,2014-01-12 11:15:00,
2014-01-12 05:20:00,42.8,21.3,29.78,South,178,8.1,12.3,42,0.00,,,0.00,VWS V14.00,2014-01-12 11:20:00,
2014-01-12 05:26:00,42.8,21.3,29.78,SW,214,8.3,12.3,42,0.00,,,0.00,VWS V14.00,2014-01-12 11:26:00,
2014-01-12 05:31:00,43.0,21.5,29.78,South,184,10.1,10.1,42,0.00,,,0.00,VWS V14.00,2014-01-12 11:31:00,
2014-01-12 05:36:00,43.0,21.5,29.78,SSE,164,10.5,10.5,42,0.00,,,0.00,VWS V14.00,2014-01-12 11:36:00,
2014-01-12 05:41:00,43.5,22.0,29.78,SSW,205,7.6,12.3,42,0.00,,,0.00,VWS V14.00,2014-01-12 11:41:00,
2014-01-12 05:47:00,44.1,21.9,29.78,SSW,192,12.8,12.8,41,0.00,,,0.00,VWS V14.00,2014-01-12 11:47:00,
2014-01-12 05:53:00,44.4,22.2,29.78,South,175,14.1,14.1,41,0.00,,,0.00,VWS V14.00,2014-01-12 11:53:00,
2014-01-12 05:58:00,45.0,22.7,29.78,South,181,16.3,16.3,41,0.00,,,0.00,VWS V14.00,2014-01-12 11:58:00,
2014-01-12 06:03:00,45.1,22.9,29.78,South,185,14.5,14.5,41,0.00,,,0.00,VWS V14.00,2014-01-12 12:03:00,
2014-01-12 06:08:00,45.5,23.2,29.78,SSW,193,10.5,14.5,41,0.00,,,0.00,VWS V14.00,2014-01-12 12:08:00,
2014-01-12 06:13:00,46.0,23.1,29.78,SSE,168,10.1,15.0,40,0.00,,,0.00,VWS V14.00,2014-01-12 12:13:00,
2014-01-12 06:19:00,45.9,22.9,29.78,SSW,197,10.1,12.8,40,0.00,,,0.00,VWS V14.00,2014-01-12 12:19:00,
2014-01-12 06:24:00,46.2,23.2,29.78,South,190,15.0,15.0,40,0.00,,,0.00,VWS V14.00,2014-01-12 12:24:00,
2014-01-12 06:29:00,46.6,23.0,29.78,South,189,10.1,13.6,39,0.00,,,0.00,VWS V14.00,2014-01-12 12:29:00,
2014-01-12 06:35:00,46.6,23.0,29.78,South,186,8.3,11.0,39,0.00,,,0.00,VWS V14.00,2014-01-12 12:35:00,
2014-01-12 06:40:00,46.6,23.0,29.75,SSW,203,10.5,13.2,39,0.00,,,0.00,VWS V14.00,2014-01-12 12:40:00,
2014-01-12 06:46:00,46.9,23.3,29.75,SSE,165,12.3,13.2,39,0.00,,,0.00,VWS V14.00,2014-01-12 12:46:00,
2014-01-12 06:52:00,46.9,23.3,29.75,South,184,8.7,12.8,39,0.00,,,0.00,VWS V14.00,2014-01-12 12:52:00,
2014-01-12 06:57:00,47.5,24.4,29.75,SSW,202,12.3,15.4,40,0.00,,,0.00,VWS V14.00,2014-01-12 12:57:00,
2014-01-12 07:02:00,48.0,24.3,29.75,South,183,12.3,18.8,39,0.00,,,0.00,VWS V14.00,2014-01-12 13:02:00,
2014-01-12 07:08:00,48.2,24.4,29.75,SW,217,11.0,13.2,39,0.00,,,0.00,VWS V14.00,2014-01-12 13:08:00,
2014-01-12 07:14:00,48.4,24.6,29.75,SSW,198,7.6,13.2,39,0.00,,,0.00,VWS V14.00,2014-01-12 13:14:00,
2014-01-12 07:20:00,48.4,24.6,29.75,SSW,203,10.1,17.4,39,0.00,,,0.00,VWS V14.00,2014-01-12 13:20:00,
2014-01-12 07:25:00,48.4,24.6,29.75,SSW,204,10.5,11.9,39,0.00,,,0.00,VWS V14.00,2014-01-12 13:25:00,
2014-01-12 07:31:00,48.4,24.6,29.75,SSW,212,7.6,19.7,39,0.00,,,0.00,VWS V14.00,2014-01-12 13:31:00,
2014-01-12 07:36:00,48.6,24.7,29.75,SSE,156,11.9,11.9,39,0.00,,,0.00,VWS V14.00,2014-01-12 13:36:00,
2014-01-12 07:42:00,48.7,24.9,29.75,SSW,199,10.5,14.5,39,0.00,,,0.00,VWS V14.00,2014-01-12 13:42:00,
2014-01-12 07:47:00,48.6,24.7,29.75,SSW,197,12.8,12.8,39,0.00,,,0.00,VWS V14.00,2014-01-12 13:47:00,
2014-01-12 07:53:00,48.7,24.9,29.72,SSE,164,10.1,15.4,39,0.00,,,0.00,VWS V14.00,2014-01-12 13:53:00,
2014-01-12 07:59:00,49.5,25.5,29.72,SSE,162,12.8,12.8,39,0.00,,,0.00,VWS V14.00,2014-01-12 13:59:00,
2014-01-12 08:04:00,49.6,25.7,29.72,WSW,237,8.7,19.7,39,0.00,,,0.00,VWS V14.00,2014-01-12 14:04:00,
2014-01-12 08:10:00,49.8,25.9,29.72,SSW,195,8.7,22.4,39,0.00,,,0.00,VWS V14.00,2014-01-12 14:10:00,
2014-01-12 08:15:00,50.2,25.6,29.72,SSW,194,13.2,13.2,38,0.00,,,0.00,VWS V14.00,2014-01-12 14:15:00,
2014-01-12 08:21:00,50.5,25.9,29.72,SSW,202,11.0,15.0,38,0.00,,,0.00,VWS V14.00,2014-01-12 14:21:00,
2014-01-12 08:27:00,50.9,26.2,29.72,SSW,208,10.1,17.9,38,0.00,,,0.00,VWS V14.00,2014-01-12 14:27:00,
2014-01-12 08:32:00,51.4,26.7,29.72,South,170,28.0,28.0,38,0.00,,,0.00,VWS V14.00,2014-01-12 14:32:00,
2014-01-12 08:37:00,52.0,27.2,29.72,SSW,211,13.2,27.1,38,0.00,,,0.00,VWS V14.00,2014-01-12 14:37:00,
2014-01-12 08:42:00,52.0,26.5,29.69,South,191,25.7,25.7,37,0.00,,,0.00,VWS V14.00,2014-01-12 14:42:00,
2014-01-12 08:48:00,52.7,27.8,29.69,South,178,14.1,18.3,38,0.00,,,0.00,VWS V14.00,2014-01-12 14:48:00,
2014-01-12 08:53:00,52.9,28.0,29.72,SSW,198,17.9,23.3,38,0.00,,,0.00,VWS V14.00,2014-01-12 14:53:00,
2014-01-12 08:58:00,53.2,27.7,29.72,SSW,200,11.0,24.2,37,0.00,,,0.00,VWS V14.00,2014-01-12 14:58:00,
2014-01-12 09:03:00,53.4,27.8,29.72,South,182,19.2,24.6,37,0.00,,,0.00,VWS V14.00,2014-01-12 15:03:00,
2014-01-12 09:08:00,53.8,28.1,29.72,SSW,192,18.8,22.8,37,0.00,,,0.00,VWS V14.00,2014-01-12 15:08:00,
2014-01-12 09:13:00,54.1,28.5,29.72,SSW,194,13.6,17.0,37,0.00,,,0.00,VWS V14.00,2014-01-12 15:13:00,
2014-01-12 09:18:00,54.7,28.3,29.72,SSW,203,20.1,27.1,36,0.00,,,0.00,VWS V14.00,2014-01-12 15:18:00,
2014-01-12 09:23:00,54.9,28.4,29.72,SSW,208,22.4,25.1,36,0.00,,,0.00,VWS V14.00,2014-01-12 15:23:00,
2014-01-12 09:28:00,55.0,28.6,29.72,SSW,193,16.3,22.8,36,0.00,,,0.00,VWS V14.00,2014-01-12 15:28:00,
2014-01-12 09:33:00,55.2,28.8,29.72,SSW,194,15.9,15.9,36,0.00,,,0.00,VWS V14.00,2014-01-12 15:33:00,
2014-01-12 09:38:00,55.6,29.1,29.72,SW,214,9.6,13.2,36,0.00,,,0.00,VWS V14.00,2014-01-12 15:38:00,
2014-01-12 09:44:00,55.8,29.2,29.72,South,190,5.8,17.4,36,0.00,,,0.00,VWS V14.00,2014-01-12 15:44:00,
2014-01-12 09:49:00,55.9,29.4,29.72,SSW,194,17.0,17.0,36,0.00,,,0.00,VWS V14.00,2014-01-12 15:49:00,
2014-01-12 09:54:00,56.1,29.5,29.72,SSW,211,20.1,20.1,36,0.00,,,0.00,VWS V14.00,2014-01-12 15:54:00,
2014-01-12 09:59:00,56.3,29.7,29.72,South,179,15.0,15.0,36,0.00,,,0.00,VWS V14.00,2014-01-12 15:59:00,
2014-01-12 10:04:00,56.8,30.2,29.72,South,186,13.2,25.5,36,0.00,,,0.00,VWS V14.00,2014-01-12 16:04:00,
2014-01-12 10:09:00,56.8,30.2,29.72,SSW,195,15.9,17.0,36,0.00,,,0.00,VWS V14.00,2014-01-12 16:09:00,
2014-01-12 10:14:00,57.2,29.8,29.72,SSW,210,16.8,16.8,35,0.00,,,0.00,VWS V14.00,2014-01-12 16:14:00,
2014-01-12 10:19:00,57.6,30.1,29.72,SSW,199,13.2,25.7,35,0.00,,,0.00,VWS V14.00,2014-01-12 16:19:00,
2014-01-12 10:24:00,57.7,30.3,29.72,SSW,212,5.8,20.6,35,0.00,,,0.00,VWS V14.00,2014-01-12 16:24:00,
2014-01-12 10:29:00,58.3,30.8,29.72,SSW,211,8.7,22.8,35,0.00,,,0.00,VWS V14.00,2014-01-12 16:29:00,
2014-01-12 10:34:00,58.8,31.2,29.72,SW,218,14.1,15.4,35,0.00,,,0.00,VWS V14.00,2014-01-12 16:34:00,
2014-01-12 10:39:00,59.2,30.9,29.72,South,181,14.5,14.5,34,0.00,,,0.00,VWS V14.00,2014-01-12 16:39:00,
2014-01-12 10:44:00,59.7,31.3,29.72,SSW,209,25.5,25.5,34,0.00,,,0.00,VWS V14.00,2014-01-12 16:44:00,
2014-01-12 10:49:00,60.3,31.8,29.72,South,188,13.2,23.7,34,0.00,,,0.00,VWS V14.00,2014-01-12 16:49:00,
2014-01-12 10:54:00,60.6,32.1,29.72,South,183,15.0,26.2,34,0.00,,,0.00,VWS V14.00,2014-01-12 16:54:00,
2014-01-12 10:59:00,61.0,32.4,29.72,SW,226,10.1,18.3,34,0.00,,,0.00,VWS V14.00,2014-01-12 16:59:00,
2014-01-12 11:04:00,61.3,32.8,29.72,SSE,168,21.0,21.0,34,0.00,,,0.00,VWS V14.00,2014-01-12 17:04:00,
2014-01-12 11:10:00,61.7,33.1,29.69,SSW,206,20.6,20.6,34,0.00,,,0.00,VWS V14.00,2014-01-12 17:10:00,
2014-01-12 11:15:00,61.9,32.5,29.69,South,179,22.4,22.8,33,0.00,,,0.00,VWS V14.00,2014-01-12 17:15:00,
2014-01-12 11:20:00,62.1,32.6,29.69,SSW,211,13.2,21.5,33,0.00,,,0.00,VWS V14.00,2014-01-12 17:20:00,
2014-01-12 11:25:00,62.2,32.8,29.69,SW,225,19.2,22.8,33,0.00,,,0.00,VWS V14.00,2014-01-12 17:25:00,
2014-01-12 11:30:00,62.4,33.0,29.69,South,178,12.8,12.8,33,0.00,,,0.00,VWS V14.00,2014-01-12 17:30:00,
2014-01-12 11:35:00,63.0,32.7,29.69,SSW,195,10.5,14.5,32,0.00,,,0.00,VWS V14.00,2014-01-12 17:35:00,
2014-01-12 11:41:00,63.1,32.8,29.69,SSW,207,13.2,21.9,32,0.00,,,0.00,VWS V14.00,2014-01-12 17:41:00,
2014-01-12 11:46:00,63.5,32.3,29.69,SW,234,18.8,21.5,31,0.00,,,0.00,VWS V14.00,2014-01-12 17:46:00,
2014-01-12 11:52:00,63.9,32.7,29.69,SSW,205,11.0,17.0,31,0.00,,,0.00,VWS V14.00,2014-01-12 17:52:00,
2014-01-12 11:57:00,64.2,33.0,29.66,SSW,201,17.4,17.4,31,0.00,,,0.00,VWS V14.00,2014-01-12 17:57:00,
2014-01-12 12:02:00,64.6,32.5,29.66,SSW,203,15.0,23.7,30,0.00,,,0.00,VWS V14.00,2014-01-12 18:02:00,
2014-01-12 12:07:00,64.9,32.8,29.66,South,174,11.9,25.1,30,0.00,,,0.00,VWS V14.00,2014-01-12 18:07:00,
2014-01-12 12:12:00,65.1,32.9,29.66,SSW,211,10.1,14.1,30,0.00,,,0.00,VWS V14.00,2014-01-12 18:12:00,
2014-01-12 12:17:00,65.7,33.4,29.66,South,184,9.6,22.8,30,0.00,,,0.00,VWS V14.00,2014-01-12 18:17:00,
2014-01-12 12:22:00,65.7,33.4,29.66,South,180,17.9,17.9,30,0.00,,,0.00,VWS V14.00,2014-01-12 18:22:00,
2014-01-12 12:27:00,66.0,33.7,29.66,SW,214,15.0,15.0,30,0.00,,,0.00,VWS V14.00,2014-01-12 18:27:00,
2014-01-12 12:32:00,66.0,33.7,29.66,SW,218,17.4,17.4,30,0.00,,,0.00,VWS V14.00,2014-01-12 18:32:00,
2014-01-12 12:37:00,66.4,33.2,29.66,SW,224,15.0,15.4,29,0.00,,,0.00,VWS V14.00,2014-01-12 18:37:00,
2014-01-12 12:42:00,66.6,33.3,29.63,South,189,18.3,18.3,29,0.00,,,0.00,VWS V14.00,2014-01-12 18:42:00,
2014-01-12 12:47:00,66.7,32.6,29.63,South,190,11.0,15.9,28,0.00,,,0.00,VWS V14.00,2014-01-12 18:47:00,
2014-01-12 12:52:00,66.9,32.8,29.63,SSW,204,13.6,13.6,28,0.00,,,0.00,VWS V14.00,2014-01-12 18:52:00,
2014-01-12 12:57:00,67.3,33.1,29.63,SSE,163,17.4,21.9,28,0.00,,,0.00,VWS V14.00,2014-01-12 18:57:00,
2014-01-12 13:02:00,67.3,33.1,29.63,SSW,210,22.8,22.8,28,0.00,,,0.00,VWS V14.00,2014-01-12 19:02:00,
2014-01-12 13:07:00,67.5,33.2,29.63,SSW,194,8.3,17.4,28,0.00,,,0.00,VWS V14.00,2014-01-12 19:07:00,
2014-01-12 13:12:00,67.8,33.5,29.63,SSW,198,15.4,29.3,28,0.00,,,0.00,VWS V14.00,2014-01-12 19:12:00,
2014-01-12 13:17:00,68.0,33.7,29.63,SSW,202,8.7,12.8,28,0.00,,,0.00,VWS V14.00,2014-01-12 19:17:00,
2014-01-12 13:22:00,68.4,33.1,29.63,South,190,8.7,16.8,27,0.00,,,0.00,VWS V14.00,2014-01-12 19:22:00,
2014-01-12 13:27:00,68.5,33.3,29.60,SSW,196,10.5,13.2,27,0.00,,,0.00,VWS V14.00,2014-01-12 19:27:00,
2014-01-12 13:32:00,68.9,33.6,29.60,SSE,153,10.5,12.8,27,0.00,,,0.00,VWS V14.00,2014-01-12 19:32:00,
2014-01-12 13:37:00,69.1,33.7,29.60,SSW,195,15.0,19.7,27,0.00,,,0.00,VWS V14.00,2014-01-12 19:37:00,
2014-01-12 13:42:00,69.3,33.9,29.60,SSW,194,13.2,13.2,27,0.00,,,0.00,VWS V14.00,2014-01-12 19:42:00,
2014-01-12 13:47:00,69.6,33.2,29.60,SSW,195,13.2,15.4,26,0.00,,,0.00,VWS V14.00,2014-01-12 19:47:00,
2014-01-12 13:52:00,69.6,33.2,29.60,SW,218,10.5,19.7,26,0.00,,,0.00,VWS V14.00,2014-01-12 19:52:00,
2014-01-12 13:57:00,70.0,33.5,29.60,South,181,16.3,21.0,26,0.00,,,0.00,VWS V14.00,2014-01-12 19:57:00,
2014-01-12 14:03:00,70.2,32.7,29.60,SW,232,10.1,19.7,25,0.00,,,0.00,VWS V14.00,2014-01-12 20:03:00,
2014-01-12 14:08:00,70.3,32.9,29.57,South,176,22.4,22.4,25,0.00,,,0.00,VWS V14.00,2014-01-12 20:08:00,
2014-01-12 14:13:00,70.5,34.0,29.57,SSW,205,9.2,19.2,26,0.00,,,0.00,VWS V14.00,2014-01-12 20:13:00,
2014-01-12 14:18:00,70.5,34.0,29.57,SSW,201,10.5,17.9,26,0.00,,,0.00,VWS V14.00,2014-01-12 20:18:00,
2014-01-12 14:23:00,70.3,33.9,29.57,SW,224,10.5,12.8,26,0.00,,,0.00,VWS V14.00,2014-01-12 20:23:00,
2014-01-12 14:28:00,70.7,34.2,29.57,WSW,239,10.1,21.5,26,0.00,,,0.00,VWS V14.00,2014-01-12 20:28:00,
2014-01-12 14:33:00,70.9,33.3,29.57,SW,227,15.9,24.6,25,0.00,,,0.00,VWS V14.00,2014-01-12 20:33:00,
2014-01-12 14:38:00,70.9,33.3,29.57,SW,214,8.1,17.0,25,0.00,,,0.00,VWS V14.00,2014-01-12 20:38:00,
2014-01-12 14:43:00,71.1,34.5,29.57,South,183,10.5,10.5,26,0.00,,,0.00,VWS V14.00,2014-01-12 20:43:00,
2014-01-12 14:49:00,71.1,33.5,29.57,SW,222,24.2,24.2,25,0.00,,,0.00,VWS V14.00,2014-01-12 20:49:00,
2014-01-12 14:54:00,71.2,33.6,29.57,South,188,17.4,22.4,25,0.00,,,0.00,VWS V14.00,2014-01-12 20:54:00,
2014-01-12 14:59:00,71.2,33.6,29.57,SSW,205,12.8,23.3,25,0.00,,,0.00,VWS V14.00,2014-01-12 20:59:00,
2014-01-12 15:04:00,71.4,33.8,29.57,South,177,8.1,31.5,25,0.00,,,0.00,VWS V14.00,2014-01-12 21:04:00,
2014-01-12 15:09:00,71.4,33.8,29.57,SSE,158,20.6,25.1,25,0.00,,,0.00,VWS V14.00,2014-01-12 21:09:00,
2014-01-12 15:14:00,71.4,33.8,29.57,SSE,154,15.9,25.5,25,0.00,,,0.00,VWS V14.00,2014-01-12 21:14:00,
2014-01-12 15:19:00,71.4,33.8,29.57,SSW,207,13.2,22.8,25,0.00,,,0.00,VWS V14.00,2014-01-12 21:19:00,
2014-01-12 15:24:00,71.4,33.8,29.57,SSW,211,24.6,27.1,25,0.00,,,0.00,VWS V14.00,2014-01-12 21:24:00,
2014-01-12 15:29:00,71.2,33.6,29.57,SSW,210,11.0,18.8,25,0.00,,,0.00,VWS V14.00,2014-01-12 21:29:00,
2014-01-12 15:34:00,71.2,33.6,29.57,SSW,198,17.4,17.4,25,0.00,,,0.00,VWS V14.00,2014-01-12 21:34:00,
2014-01-12 15:39:00,71.2,33.6,29.57,SSW,200,12.8,14.5,25,0.00,,,0.00,VWS V14.00,2014-01-12 21:39:00,
2014-01-12 15:45:00,71.2,33.6,29.57,South,187,13.2,28.0,25,0.00,,,0.00,VWS V14.00,2014-01-12 21:45:00,
2014-01-12 15:50:00,71.1,33.5,29.57,SSW,208,13.2,15.9,25,0.00,,,0.00,VWS V14.00,2014-01-12 21:50:00,
2014-01-12 15:55:00,71.1,33.5,29.57,SSW,202,12.8,17.4,25,0.00,,,0.00,VWS V14.00,2014-01-12 21:55:00,
2014-01-12 16:00:00,71.1,34.5,29.57,South,189,12.8,12.8,26,0.00,,,0.00,VWS V14.00,2014-01-12 22:00:00,
2014-01-12 16:05:00,70.9,33.3,29.57,SSW,200,10.5,13.2,25,0.00,,,0.00,VWS V14.00,2014-01-12 22:05:00,
2014-01-12 16:10:00,70.9,34.3,29.60,SSW,205,10.1,15.0,26,0.00,,,0.00,VWS V14.00,2014-01-12 22:10:00,
2014-01-12 16:15:00,70.9,34.3,29.60,SSW,195,9.6,15.0,26,0.00,,,0.00,VWS V14.00,2014-01-12 22:15:00,
2014-01-12 16:20:00,70.5,34.0,29.60,SSW,205,11.0,13.2,26,0.00,,,0.00,VWS V14.00,2014-01-12 22:20:00,
2014-01-12 16:25:00,70.5,34.0,29.60,SW,214,11.0,18.3,26,0.00,,,0.00,VWS V14.00,2014-01-12 22:25:00,
2014-01-12 16:30:00,70.3,33.9,29.60,SSW,207,5.8,13.2,26,0.00,,,0.00,VWS V14.00,2014-01-12 22:30:00,
2014-01-12 16:35:00,70.2,33.7,29.60,SW,221,17.0,26.2,26,0.00,,,0.00,VWS V14.00,2014-01-12 22:35:00,
2014-01-12 16:40:00,70.2,33.7,29.60,South,174,10.1,10.1,26,0.00,,,0.00,VWS V14.00,2014-01-12 22:40:00,
2014-01-12 16:45:00,70.2,33.7,29.60,South,180,9.6,24.6,26,0.00,,,0.00,VWS V14.00,2014-01-12 22:45:00,
2014-01-12 16:50:00,69.6,33.2,29.60,SSW,205,14.5,18.3,26,0.00,,,0.00,VWS V14.00,2014-01-12 22:50:00,
2014-01-12 16:56:00,69.4,33.1,29.60,South,190,10.5,20.1,26,0.00,,,0.00,VWS V14.00,2014-01-12 22:56:00,
2014-01-12 17:01:00,69.3,32.9,29.60,SSW,205,10.5,11.9,26,0.00,,,0.00,VWS V14.00,2014-01-12 23:01:00,
2014-01-12 17:06:00,68.7,32.5,29.60,SSW,211,13.2,13.2,26,0.00,,,0.00,VWS V14.00,2014-01-12 23:06:00,
2014-01-12 17:11:00,68.5,33.3,29.60,SW,217,13.2,15.4,27,0.00,,,0.00,VWS V14.00,2014-01-12 23:11:00,
2014-01-12 17:16:00,68.4,32.2,29.60,SSE,163,11.0,12.3,26,0.00,,,0.00,VWS V14.00,2014-01-12 23:16:00,
2014-01-12 17:21:00,67.8,32.7,29.60,South,183,12.3,17.0,27,0.00,,,0.00,VWS V14.00,2014-01-12 23:21:00,
2014-01-12 17:26:00,67.5,32.3,29.60,South,184,10.5,12.3,27,0.00,,,0.00,VWS V14.00,2014-01-12 23:26:00,
2014-01-12 17:31:00,67.1,32.0,29.60,South,181,10.5,10.5,27,0.00,,,0.00,VWS V14.00,2014-01-12 23:31:00,
2014-01-12 17:36:00,66.9,31.9,29.60,SSW,197,10.5,10.5,27,0.00,,,0.00,VWS V14.00,2014-01-12 23:36:00,
2014-01-12 17:41:00,66.4,31.4,29.57,South,187,5.4,7.6,27,0.00,,,0.00,VWS V14.00,2014-01-12 23:41:00,
2014-01-12 17:46:00,66.2,31.3,29.57,South,175,15.0,15.0,27,0.00,,,0.00,VWS V14.00,2014-01-12 23:46:00,
2014-01-12 17:51:00,66.0,32.0,29.57,South,181,8.3,12.3,28,0.00,,,0.00,VWS V14.00,2014-01-12 23:51:00,
2014-01-12 17:56:00,65.7,31.7,29.57,SSW,210,8.7,10.5,28,0.00,,,0.00,VWS V14.00,2014-01-12 23:56:00,
2014-01-12 18:01:00,65.8,31.9,29.57,SSE,150,6.3,13.2,28,0.00,,,0.00,VWS V14.00,2014-01-13 00:01:00,
2014-01-12 18:06:00,65.5,31.5,29.57,South,185,6.3,10.1,28,0.00,,,0.00,VWS V14.00,2014-01-13 00:06:00,
2014-01-12 18:11:00,65.7,31.7,29.57,SSE,155,10.1,10.1,28,0.00,,,0.00,VWS V14.00,2014-01-13 00:11:00,
2014-01-12 18:16:00,65.1,31.2,29.57,SSW,195,8.7,8.7,28,0.00,,,0.00,VWS V14.00,2014-01-13 00:16:00,
2014-01-12 18:21:00,64.8,30.9,29.57,South,172,7.6,13.2,28,0.00,,,0.00,VWS V14.00,2014-01-13 00:21:00,
2014-01-12 18:26:00,64.8,30.9,29.57,SSW,195,7.2,8.3,28,0.00,,,0.00,VWS V14.00,2014-01-13 00:26:00,
2014-01-12 18:31:00,64.4,30.6,29.57,SSW,199,4.9,6.3,28,0.00,,,0.00,VWS V14.00,2014-01-13 00:31:00,
2014-01-12 18:36:00,64.0,30.3,29.57,South,172,8.7,11.0,28,0.00,,,0.00,VWS V14.00,2014-01-13 00:36:00,
2014-01-12 18:41:00,64.0,31.2,29.57,South,177,8.3,8.7,29,0.00,,,0.00,VWS V14.00,2014-01-13 00:41:00,
2014-01-12 18:47:00,63.9,31.0,29.57,South,176,9.2,11.0,29,0.00,,,0.00,VWS V14.00,2014-01-13 00:47:00,
2014-01-12 18:52:00,63.7,30.9,29.57,SSW,197,6.3,8.7,29,0.00,,,0.00,VWS V14.00,2014-01-13 00:52:00,
2014-01-12 18:57:00,63.7,30.9,29.57,SW,236,10.1,11.9,29,0.00,,,0.00,VWS V14.00,2014-01-13 00:57:00,
2014-01-12 19:02:00,63.9,31.0,29.57,South,191,8.3,9.6,29,0.00,,,0.00,VWS V14.00,2014-01-13 01:02:00,
2014-01-12 19:07:00,63.9,31.0,29.57,SW,218,14.5,14.5,29,0.00,,,0.00,VWS V14.00,2014-01-13 01:07:00,
2014-01-12 19:12:00,63.9,31.0,29.57,SSW,192,12.8,14.5,29,0.00,,,0.00,VWS V14.00,2014-01-13 01:12:00,
2014-01-12 19:17:00,63.9,31.0,29.57,SE,145,8.1,13.2,29,0.00,,,0.00,VWS V14.00,2014-01-13 01:17:00,
2014-01-12 19:22:00,63.3,30.5,29.57,SSW,206,11.0,11.0,29,0.00,,,0.00,VWS V14.00,2014-01-13 01:22:00,
2014-01-12 19:27:00,63.3,30.5,29.57,SSE,162,9.6,12.8,29,0.00,,,0.00,VWS V14.00,2014-01-13 01:27:00,
2014-01-12 19:33:00,63.3,31.4,29.57,SSE,149,8.1,13.2,30,0.00,,,0.00,VWS V14.00,2014-01-13 01:33:00,
2014-01-12 19:38:00,63.3,31.4,29.57,South,187,8.1,15.4,30,0.00,,,0.00,VWS V14.00,2014-01-13 01:38:00,
2014-01-12 19:43:00,63.0,31.1,29.57,South,182,15.0,15.0,30,0.00,,,0.00,VWS V14.00,2014-01-13 01:43:00,
2014-01-12 19:49:00,63.1,31.2,29.57,South,185,8.3,15.0,30,0.00,,,0.00,VWS V14.00,2014-01-13 01:49:00,
2014-01-12 19:54:00,63.0,31.1,29.57,SSE,160,11.0,11.0,30,0.00,,,0.00,VWS V14.00,2014-01-13 01:54:00,
2014-01-12 19:59:00,63.1,31.2,29.57,SSE,149,8.7,12.3,30,0.00,,,0.00,VWS V14.00,2014-01-13 01:59:00,
2014-01-12 20:04:00,62.6,31.6,29.57,SSE,156,8.3,10.1,31,0.00,,,0.00,VWS V14.00,2014-01-13 02:04:00,
2014-01-12 20:09:00,62.2,31.2,29.57,SSW,203,12.8,12.8,31,0.00,,,0.00,VWS V14.00,2014-01-13 02:09:00,
2014-01-12 20:14:00,61.9,30.9,29.57,SSE,157,11.0,11.0,31,0.00,,,0.00,VWS V14.00,2014-01-13 02:14:00,
2014-01-12 20:19:00,61.7,30.8,29.57,SSW,192,4.9,7.6,31,0.00,,,0.00,VWS V14.00,2014-01-13 02:19:00,
2014-01-12 20:24:00,61.3,31.2,29.57,South,183,7.6,8.3,32,0.00,,,0.00,VWS V14.00,2014-01-13 02:24:00,
2014-01-12 20:29:00,61.0,30.9,29.57,SSW,204,8.1,12.8,32,0.00,,,0.00,VWS V14.00,2014-01-13 02:29:00,
2014-01-12 20:35:00,61.0,31.7,29.57,South,175,11.0,11.9,33,0.00,,,0.00,VWS V14.00,2014-01-13 02:35:00,
2014-01-12 20:40:00,61.0,31.7,29.57,SSW,204,11.0,11.0,33,0.00,,,0.00,VWS V14.00,2014-01-13 02:40:00,
2014-01-12 20:45:00,60.6,32.1,29.57,SW,215,9.2,9.2,34,0.00,,,0.00,VWS V14.00,2014-01-13 02:45:00,
2014-01-12 20:50:00,61.0,32.4,29.57,SW,225,2.7,10.5,34,0.00,,,0.00,VWS V14.00,2014-01-13 02:50:00,
2014-01-12 20:55:00,61.3,32.8,29.63,SW,218,11.4,13.2,34,0.00,,,0.00,VWS V14.00,2014-01-13 02:55:00,
2014-01-12 21:00:00,61.7,33.1,29.63,WSW,241,7.6,8.7,34,0.00,,,0.00,VWS V14.00,2014-01-13 03:00:00,
2014-01-12 21:05:00,61.2,32.6,29.63,West,278,6.3,6.3,34,0.00,,,0.00,VWS V14.00,2014-01-13 03:05:00,
2014-01-12 21:10:00,60.6,32.1,29.66,NW,305,6.3,11.0,34,0.00,,,0.00,VWS V14.00,2014-01-13 03:10:00,
2014-01-12 21:16:00,59.2,30.1,29.66,NNE,13,5.4,8.7,33,0.00,,,0.00,VWS V14.00,2014-01-13 03:16:00,
2014-01-12 21:21:00,58.6,30.4,29.66,WNW,295,8.3,8.3,34,0.00,,,0.00,VWS V14.00,2014-01-13 03:21:00,
2014-01-12 21:26:00,57.9,29.7,29.66,NW,311,2.7,8.3,34,0.00,,,0.00,VWS V14.00,2014-01-13 03:26:00,
2014-01-12 21:31:00,57.2,29.1,29.66,WNW,303,11.4,15.0,34,0.00,,,0.00,VWS V14.00,2014-01-13 03:31:00,
2014-01-12 21:36:00,56.8,29.5,29.66,NW,323,7.6,10.1,35,0.00,,,0.00,VWS V14.00,2014-01-13 03:36:00,
2014-01-12 21:41:00,55.9,28.7,29.69,NW,319,8.3,12.8,35,0.00,,,0.00,VWS V14.00,2014-01-13 03:41:00,
2014-01-12 21:46:00,55.6,28.4,29.69,NNW,340,10.1,11.0,35,0.00,,,0.00,VWS V14.00,2014-01-13 03:46:00,
2014-01-12 21:51:00,55.2,28.8,29.69,West,275,8.1,14.1,36,0.00,,,0.00,VWS V14.00,2014-01-13 03:51:00,
2014-01-12 21:56:00,54.7,28.3,29.69,NW,316,10.1,15.4,36,0.00,,,0.00,VWS V14.00,2014-01-13 03:56:00,
2014-01-12 22:01:00,54.1,27.8,29.69,NW,314,8.1,10.1,36,0.00,,,0.00,VWS V14.00,2014-01-13 04:01:00,
2014-01-12 22:06:00,53.8,27.5,29.69,NNW,332,12.8,13.2,36,0.00,,,0.00,VWS V14.00,2014-01-13 04:06:00,
2014-01-12 22:11:00,53.2,27.7,29.69,NW,310,8.3,10.1,37,0.00,,,0.00,VWS V14.00,2014-01-13 04:11:00,
2014-01-12 22:16:00,52.9,28.0,29.69,NNW,333,5.8,13.2,38,0.00,,,0.00,VWS V14.00,2014-01-13 04:16:00,
2014-01-12 22:21:00,52.3,27.5,29.69,NNW,334,8.7,8.7,38,0.00,,,0.00,VWS V14.00,2014-01-13 04:21:00,
2014-01-12 22:26:00,52.0,27.2,29.72,WNW,301,11.0,12.8,38,0.00,,,0.00,VWS V14.00,2014-01-13 04:26:00,
2014-01-12 22:31:00,51.6,27.5,29.72,WNW,299,7.6,8.1,39,0.00,,,0.00,VWS V14.00,2014-01-13 04:31:00,
2014-01-12 22:36:00,51.4,27.9,29.72,WNW,299,10.1,14.5,40,0.00,,,0.00,VWS V14.00,2014-01-13 04:36:00,
2014-01-12 22:41:00,51.3,27.8,29.72,WNW,295,6.3,12.8,40,0.00,,,0.00,VWS V14.00,2014-01-13 04:41:00,
2014-01-12 22:46:00,51.1,28.2,29.72,NNW,330,8.7,13.6,41,0.00,,,0.00,VWS V14.00,2014-01-13 04:46:00,
2014-01-12 22:51:00,50.7,27.9,29.72,NNW,336,10.5,11.4,41,0.00,,,0.00,VWS V14.00,2014-01-13 04:51:00,
2014-01-12 22:56:00,50.7,28.5,29.75,NW,322,12.3,14.5,42,0.00,,,0.00,VWS V14.00,2014-01-13 04:56:00,
2014-01-12 23:01:00,50.5,28.3,29.75,NNW,340,8.7,8.7,42,0.00,,,0.00,VWS V14.00,2014-01-13 05:01:00,
2014-01-12 23:02:00,50.4,28.2,29.75,NW,317,5.4,10.5,42,0.00,,,0.00,VWS V14.00,2014-01-13 05:02:00,
2014-01-12 23:03:00,50.4,28.2,29.75,NW,321,7.6,7.6,42,0.00,,,0.00,VWS V14.00,2014-01-13 05:03:00,
2014-01-12 23:05:00,50.2,28.6,29.75,NW,305,5.8,8.7,43,0.00,,,0.00,VWS V14.00,2014-01-13 05:05:00,
2014-01-12 23:10:00,49.8,28.8,29.75,WNW,301,5.8,9.6,44,0.00,,,0.00,VWS V14.00,2014-01-13 05:10:00,
2014-01-12 23:14:00,49.8,28.8,29.75,NW,306,5.8,9.6,44,0.00,,,0.00,VWS V14.00,2014-01-13 05:14:00,
2014-01-12 23:19:00,49.6,28.6,29.75,NNW,346,8.3,8.3,44,0.00,,,0.00,VWS V14.00,2014-01-13 05:19:00,
2014-01-12 23:24:00,49.3,28.3,29.75,WNW,302,4.0,8.3,44,0.00,,,0.00,VWS V14.00,2014-01-13 05:24:00,
2014-01-12 23:29:00,49.1,28.1,29.75,NW,314,5.4,7.6,44,0.00,,,0.00,VWS V14.00,2014-01-13 05:29:00,
2014-01-12 23:34:00,49.1,28.7,29.75,NW,310,6.3,11.0,45,0.00,,,0.00,VWS V14.00,2014-01-13 05:34:00,
2014-01-12 23:39:00,48.9,28.5,29.78,NNW,329,6.7,10.1,45,0.00,,,0.00,VWS V14.00,2014-01-13 05:39:00,
2014-01-12 23:41:00,49.1,28.7,29.78,NW,307,6.7,13.2,45,0.00,,,0.00,VWS V14.00,2014-01-13 05:41:00,
2014-01-12 23:46:00,49.1,28.7,29.78,NNW,332,7.6,11.0,45,0.00,,,0.00,VWS V14.00,2014-01-13 05:46:00,
2014-01-12 23:51:00,49.1,28.7,29.78,WNW,301,5.8,11.0,45,0.00,,,0.00,VWS V14.00,2014-01-13 05:51:00,
2014-01-12 23:56:00,49.1,28.7,29.78,NW,326,8.3,15.0,45,0.00,,,0.00,VWS V14.00,2014-01-13 05:56:00,